Wetterdaten: Woche 02.03.09 - 08.03.09 (KW10)
Datum Zeit Temperatur Luftfeuchte Luftdruck Niederschlag Windrichtung Wind
02.03.2009 00:00 3,9 C 88 % 1012,9 hPa 0,0 l/m N 0,5 km/h (0 Bft)
02.03.2009 01:00 3,7 C 89 % 1013,0 hPa 0,0 l/m N 0,1 km/h (0 Bft)
02.03.2009 02:00 3,5 C 90 % 1013,2 hPa 0,0 l/m N 1,5 km/h (1 Bft)
02.03.2009 03:00 3,4 C 91 % 1013,1 hPa 0,0 l/m N 1,7 km/h (1 Bft)
02.03.2009 04:00 3,3 C 92 % 1013,1 hPa 0,6 l/m N 0,4 km/h (0 Bft)
02.03.2009 05:00 3,2 C 94 % 1013,1 hPa 0,2 l/m N 0,0 km/h (0 Bft)
02.03.2009 06:00 3,1 C 96 % 1013,0 hPa 0,8 l/m N 1,5 km/h (1 Bft)
02.03.2009 07:00 3,0 C 96 % 1013,0 hPa 0,2 l/m N 1,2 km/h (1 Bft)
02.03.2009 08:00 3,4 C 97 % 1013,3 hPa 0,0 l/m S-SW 1,1 km/h (0 Bft)
02.03.2009 09:00 4,0 C 98 % 1013,6 hPa 0,0 l/m S 5,5 km/h (1 Bft)
02.03.2009 10:00 4,9 C 98 % 1013,9 hPa 0,0 l/m S-SW 6,7 km/h (2 Bft)
02.03.2009 11:00 5,5 C 96 % 1014,0 hPa 0,0 l/m SW 9,1 km/h (2 Bft)
02.03.2009 12:00 6,3 C 95 % 1014,3 hPa 0,0 l/m SW 7,9 km/h (2 Bft)
02.03.2009 13:00 6,6 C 93 % 1014,2 hPa 0,0 l/m W 10,9 km/h (2 Bft)
02.03.2009 14:00 6,8 C 92 % 1014,2 hPa 0,0 l/m W-SW 9,5 km/h (2 Bft)
02.03.2009 15:00 6,8 C 92 % 1014,4 hPa 0,0 l/m W 8,0 km/h (2 Bft)
02.03.2009 16:00 6,2 C 94 % 1014,7 hPa 0,4 l/m W-NW 8,2 km/h (2 Bft)
02.03.2009 17:00 5,8 C 95 % 1014,9 hPa 0,4 l/m W 6,3 km/h (2 Bft)
02.03.2009 18:00 5,5 C 95 % 1015,4 hPa 0,2 l/m W 2,4 km/h (1 Bft)
02.03.2009 19:00 5,1 C 95 % 1015,9 hPa 0,6 l/m N 0,9 km/h (0 Bft)
02.03.2009 20:00 4,7 C 96 % 1016,1 hPa 0,4 l/m N 0,1 km/h (0 Bft)
02.03.2009 21:00 4,3 C 96 % 1016,5 hPa 0,6 l/m W 2,5 km/h (1 Bft)
02.03.2009 22:00 4,0 C 97 % 1016,8 hPa 0,6 l/m W-SW 3,9 km/h (1 Bft)
02.03.2009 23:00 3,8 C 98 % 1017,0 hPa 0,4 l/m SW 6,0 km/h (2 Bft)
03.03.2009 00:00 3,8 C 98 % 1017,2 hPa 0,2 l/m SW 6,1 km/h (2 Bft)
03.03.2009 01:00 3,6 C 98 % 1017,3 hPa 0,2 l/m SW 4,0 km/h (1 Bft)
03.03.2009 02:00 3,5 C 98 % 1017,2 hPa 0,2 l/m N 1,7 km/h (1 Bft)
03.03.2009 03:00 3,4 C 98 % 1017,0 hPa 0,2 l/m N 1,2 km/h (1 Bft)
03.03.2009 04:00 3,2 C 98 % 1016,9 hPa 0,0 l/m N 0,7 km/h (0 Bft)
03.03.2009 05:00 3,2 C 98 % 1016,7 hPa 0,4 l/m N 0,9 km/h (0 Bft)
03.03.2009 06:00 3,0 C 98 % 1016,7 hPa 0,0 l/m N 0,0 km/h (0 Bft)
03.03.2009 07:00 2,8 C 98 % 1016,7 hPa 0,0 l/m N 0,4 km/h (0 Bft)
03.03.2009 08:00 3,1 C 98 % 1016,7 hPa 0,2 l/m NW 2,4 km/h (1 Bft)
03.03.2009 09:00 3,6 C 99 % 1016,4 hPa 0,0 l/m NO 3,9 km/h (1 Bft)
03.03.2009 10:00 4,3 C 96 % 1016,2 hPa 0,0 l/m NO 5,2 km/h (1 Bft)
03.03.2009 11:00 5,0 C 91 % 1015,8 hPa 0,0 l/m SO 5,6 km/h (1 Bft)
03.03.2009 12:00 5,4 C 90 % 1015,0 hPa 0,0 l/m O-SO 6,0 km/h (2 Bft)
03.03.2009 13:00 5,8 C 88 % 1014,2 hPa 0,0 l/m S-SO 5,5 km/h (1 Bft)
03.03.2009 14:00 5,7 C 87 % 1013,4 hPa 0,0 l/m SW 4,1 km/h (1 Bft)
03.03.2009 15:00 6,0 C 86 % 1012,9 hPa 0,0 l/m SO 5,2 km/h (1 Bft)
03.03.2009 16:00 5,9 C 85 % 1012,3 hPa 0,0 l/m S-SW 4,8 km/h (1 Bft)
03.03.2009 17:00 5,5 C 87 % 1011,7 hPa 0,0 l/m S-SW 1,9 km/h (1 Bft)
03.03.2009 18:00 5,0 C 89 % 1011,4 hPa 0,0 l/m S-SW 1,3 km/h (1 Bft)
03.03.2009 19:00 4,4 C 91 % 1010,9 hPa 0,0 l/m N 1,2 km/h (1 Bft)
03.03.2009 20:00 4,0 C 92 % 1010,1 hPa 0,0 l/m S-SW 1,1 km/h (0 Bft)
03.03.2009 21:00 3,6 C 94 % 1009,2 hPa 0,0 l/m N 0,1 km/h (0 Bft)
03.03.2009 22:00 3,3 C 94 % 1008,3 hPa 0,0 l/m S-SW 1,1 km/h (0 Bft)
03.03.2009 23:00 2,6 C 92 % 1007,4 hPa 0,0 l/m N 0,5 km/h (0 Bft)
04.03.2009 00:00 1,2 C 93 % 1006,7 hPa 0,0 l/m N 0,3 km/h (0 Bft)
04.03.2009 01:00 0,1 C 94 % 1006,2 hPa 0,0 l/m N 0,7 km/h (0 Bft)
04.03.2009 02:00 -0,6 C 95 % 1005,1 hPa 0,0 l/m N 0,3 km/h (0 Bft)
04.03.2009 03:00 -0,8 C 97 % 1003,9 hPa 0,0 l/m S-SW 1,5 km/h (1 Bft)
04.03.2009 04:00 -1,1 C 97 % 1002,6 hPa 0,0 l/m N 2,3 km/h (1 Bft)
04.03.2009 05:00 -1,5 C 97 % 1001,7 hPa 0,0 l/m S-SW 4,5 km/h (1 Bft)
04.03.2009 06:00 -1,8 C 97 % 1000,5 hPa 0,0 l/m S-SW 4,4 km/h (1 Bft)
04.03.2009 07:00 -2,2 C 97 % 999,7 hPa 0,0 l/m S-SW 7,9 km/h (2 Bft)
04.03.2009 08:00 -1,5 C 98 % 998,8 hPa 0,0 l/m S-SW 6,4 km/h (2 Bft)
04.03.2009 09:00 -0,4 C 99 % 997,4 hPa 0,0 l/m S-SW 7,2 km/h (2 Bft)
04.03.2009 10:00 0,9 C 98 % 996,3 hPa 0,0 l/m O-NO 9,7 km/h (2 Bft)
04.03.2009 11:00 2,2 C 92 % 995,3 hPa 0,0 l/m O-NO 14,8 km/h (3 Bft)
04.03.2009 12:00 3,7 C 89 % 993,9 hPa 0,0 l/m NO 13,7 km/h (3 Bft)
04.03.2009 13:00 4,8 C 86 % 992,6 hPa 0,0 l/m NO 13,7 km/h (3 Bft)
04.03.2009 14:00 5,9 C 83 % 991,1 hPa 0,0 l/m NO 13,6 km/h (3 Bft)
04.03.2009 15:00 6,6 C 82 % 989,8 hPa 0,0 l/m O-NO 10,9 km/h (2 Bft)
04.03.2009 16:00 6,6 C 82 % 989,1 hPa 0,0 l/m O-NO 8,3 km/h (2 Bft)
04.03.2009 17:00 6,3 C 84 % 988,8 hPa 0,0 l/m N-NO 6,4 km/h (2 Bft)
04.03.2009 18:00 5,5 C 87 % 988,0 hPa 0,0 l/m N-NO 6,1 km/h (2 Bft)
04.03.2009 19:00 4,9 C 90 % 987,5 hPa 0,0 l/m N 5,7 km/h (1 Bft)
04.03.2009 20:00 4,4 C 91 % 986,8 hPa 0,0 l/m N 5,3 km/h (1 Bft)
04.03.2009 21:00 3,8 C 92 % 986,4 hPa 0,0 l/m N 3,3 km/h (1 Bft)
04.03.2009 22:00 3,4 C 94 % 985,7 hPa 0,2 l/m N 1,7 km/h (1 Bft)
04.03.2009 23:00 3,2 C 95 % 984,8 hPa 0,0 l/m N 4,0 km/h (1 Bft)
05.03.2009 00:00 3,1 C 96 % 984,3 hPa 0,0 l/m W-SW 4,8 km/h (1 Bft)
05.03.2009 01:00 3,0 C 96 % 984,2 hPa 0,0 l/m W-SW 3,6 km/h (1 Bft)
05.03.2009 02:00 2,9 C 97 % 983,8 hPa 0,0 l/m W-NW 5,1 km/h (1 Bft)
05.03.2009 03:00 3,1 C 96 % 983,6 hPa 0,0 l/m SW 4,9 km/h (1 Bft)
05.03.2009 04:00 2,9 C 96 % 983,4 hPa 0,0 l/m SW 4,7 km/h (1 Bft)
05.03.2009 05:00 2,8 C 96 % 983,6 hPa 0,0 l/m SW 4,0 km/h (1 Bft)
05.03.2009 06:00 2,7 C 96 % 983,5 hPa 0,0 l/m W 8,2 km/h (2 Bft)
05.03.2009 07:00 3,0 C 94 % 983,5 hPa 0,0 l/m W-NW 8,3 km/h (2 Bft)
05.03.2009 08:00 3,0 C 95 % 983,5 hPa 0,4 l/m W-NW 8,3 km/h (2 Bft)
05.03.2009 09:00 3,1 C 95 % 983,7 hPa 0,6 l/m W 5,5 km/h (1 Bft)
05.03.2009 10:00 3,0 C 95 % 983,7 hPa 0,0 l/m SW 5,2 km/h (1 Bft)
05.03.2009 11:00 2,8 C 95 % 983,8 hPa 0,2 l/m W 4,8 km/h (1 Bft)
05.03.2009 12:00 2,9 C 95 % 983,4 hPa 0,2 l/m W 8,7 km/h (2 Bft)
05.03.2009 13:00 2,8 C 94 % 983,2 hPa 0,2 l/m W-NW 8,6 km/h (2 Bft)
05.03.2009 14:00 2,7 C 94 % 982,8 hPa 0,8 l/m W-NW 7,4 km/h (2 Bft)
05.03.2009 15:00 2,6 C 95 % 983,0 hPa 1,0 l/m W 4,7 km/h (1 Bft)
05.03.2009 16:00 2,2 C 94 % 983,3 hPa 1,0 l/m W 2,5 km/h (1 Bft)
05.03.2009 17:00 1,5 C 94 % 983,6 hPa 1,0 l/m W 2,4 km/h (1 Bft)
05.03.2009 18:00 1,1 C 96 % 984,4 hPa 1,2 l/m W 4,0 km/h (1 Bft)
05.03.2009 19:00 0,9 C 97 % 985,2 hPa 0,8 l/m W 7,0 km/h (2 Bft)
05.03.2009 20:00 0,8 C 97 % 985,6 hPa 0,6 l/m W-SW 8,2 km/h (2 Bft)
05.03.2009 21:00 0,8 C 97 % 986,0 hPa 0,2 l/m W-SW 11,7 km/h (2 Bft)
05.03.2009 22:00 0,8 C 97 % 986,3 hPa 0,2 l/m SW 12,8 km/h (3 Bft)
05.03.2009 23:00 0,8 C 96 % 986,6 hPa 0,2 l/m W-SW 12,2 km/h (2 Bft)
06.03.2009 00:00 0,8 C 96 % 987,1 hPa 0,0 l/m W-SW 13,0 km/h (3 Bft)
06.03.2009 01:00 0,8 C 96 % 987,8 hPa 0,2 l/m W 15,2 km/h (3 Bft)
06.03.2009 02:00 0,7 C 96 % 988,3 hPa 0,2 l/m W-SW 12,9 km/h (3 Bft)
06.03.2009 03:00 0,6 C 96 % 988,5 hPa 0,2 l/m W-SW 12,8 km/h (3 Bft)
06.03.2009 04:00 0,5 C 96 % 989,3 hPa 0,2 l/m W-SW 14,8 km/h (3 Bft)
06.03.2009 05:00 0,5 C 96 % 990,1 hPa 0,4 l/m W-SW 15,2 km/h (3 Bft)
06.03.2009 06:00 0,4 C 96 % 991,0 hPa 0,8 l/m SW 16,6 km/h (3 Bft)
06.03.2009 07:00 0,4 C 96 % 992,0 hPa 0,4 l/m SW 18,6 km/h (3 Bft)
06.03.2009 08:00 0,7 C 96 % 993,0 hPa 0,0 l/m W-SW 15,6 km/h (3 Bft)
06.03.2009 09:00 1,2 C 94 % 993,9 hPa 0,2 l/m W 14,4 km/h (3 Bft)
06.03.2009 10:00 1,5 C 93 % 994,9 hPa 0,0 l/m W-SW 18,5 km/h (3 Bft)
06.03.2009 11:00 1,7 C 93 % 995,8 hPa 0,0 l/m W-SW 20,8 km/h (4 Bft)
06.03.2009 12:00 1,4 C 94 % 996,6 hPa 0,2 l/m W-SW 20,0 km/h (4 Bft)
06.03.2009 13:00 1,4 C 95 % 997,1 hPa 0,8 l/m SW 19,8 km/h (4 Bft)
06.03.2009 14:00 1,7 C 95 % 997,6 hPa 0,2 l/m SW 19,7 km/h (3 Bft)
06.03.2009 15:00 1,7 C 94 % 998,1 hPa 0,0 l/m W-SW 20,5 km/h (4 Bft)
06.03.2009 16:00 1,6 C 94 % 998,9 hPa 0,0 l/m W-SW 18,9 km/h (3 Bft)
06.03.2009 17:00 1,2 C 95 % 999,9 hPa 0,8 l/m W 18,8 km/h (3 Bft)
06.03.2009 18:00 0,9 C 96 % 1001,0 hPa 0,8 l/m W-SW 16,2 km/h (3 Bft)
06.03.2009 19:00 0,8 C 97 % 1002,0 hPa 0,8 l/m W-SW 16,8 km/h (3 Bft)
06.03.2009 20:00 0,8 C 96 % 1002,8 hPa 0,8 l/m W 18,2 km/h (3 Bft)
06.03.2009 21:00 0,8 C 97 % 1003,5 hPa 0,8 l/m W 18,2 km/h (3 Bft)
06.03.2009 22:00 0,8 C 96 % 1004,2 hPa 0,4 l/m W-SW 17,0 km/h (3 Bft)
06.03.2009 23:00 0,8 C 96 % 1004,9 hPa 0,4 l/m W 16,6 km/h (3 Bft)
07.03.2009 00:00 0,8 C 96 % 1005,7 hPa 0,4 l/m W 12,3 km/h (3 Bft)
07.03.2009 01:00 0,7 C 96 % 1006,4 hPa 0,4 l/m W 13,6 km/h (3 Bft)
07.03.2009 02:00 0,6 C 96 % 1007,1 hPa 0,4 l/m W 11,8 km/h (2 Bft)
07.03.2009 03:00 0,6 C 96 % 1007,7 hPa 0,4 l/m W 9,3 km/h (2 Bft)
07.03.2009 04:00 0,5 C 96 % 1008,2 hPa 0,2 l/m W-SW 2,4 km/h (1 Bft)
07.03.2009 05:00 0,4 C 96 % 1008,8 hPa 0,6 l/m N 0,0 km/h (0 Bft)
07.03.2009 06:00 0,3 C 95 % 1009,6 hPa 0,4 l/m N 0,0 km/h (0 Bft)
07.03.2009 07:00 0,2 C 95 % 1010,4 hPa 0,8 l/m N 0,0 km/h (0 Bft)
07.03.2009 08:00 0,3 C 95 % 1011,4 hPa 1,2 l/m N 0,0 km/h (0 Bft)
07.03.2009 09:00 0,9 C 92 % 1012,3 hPa 0,0 l/m N 0,1 km/h (0 Bft)
07.03.2009 10:00 1,8 C 87 % 1013,3 hPa 0,0 l/m W 9,7 km/h (2 Bft)
07.03.2009 11:00 2,4 C 83 % 1013,8 hPa 0,2 l/m W 23,2 km/h (4 Bft)
07.03.2009 12:00 2,5 C 83 % 1014,1 hPa 0,0 l/m W 23,2 km/h (4 Bft)
07.03.2009 13:00 3,1 C 79 % 1013,9 hPa 0,0 l/m W 22,9 km/h (4 Bft)
07.03.2009 14:00 3,6 C 77 % 1014,3 hPa 0,0 l/m W 20,4 km/h (4 Bft)
07.03.2009 15:00 3,7 C 76 % 1014,5 hPa 0,0 l/m W 16,0 km/h (3 Bft)
07.03.2009 16:00 3,6 C 74 % 1014,9 hPa 0,0 l/m W-SW 14,9 km/h (3 Bft)
07.03.2009 17:00 2,8 C 79 % 1015,5 hPa 0,0 l/m W-SW 6,5 km/h (2 Bft)
07.03.2009 18:00 1,3 C 85 % 1016,2 hPa 0,0 l/m W-SW 6,1 km/h (2 Bft)
07.03.2009 19:00 0,3 C 90 % 1016,8 hPa 0,0 l/m W 4,5 km/h (1 Bft)
07.03.2009 20:00 -0,2 C 91 % 1017,2 hPa 0,0 l/m W 5,3 km/h (1 Bft)
07.03.2009 21:00 -0,5 C 90 % 1017,5 hPa 0,0 l/m W-SW 5,2 km/h (1 Bft)
07.03.2009 22:00 -1,6 C 93 % 1017,8 hPa 0,0 l/m S-SO 2,5 km/h (1 Bft)
07.03.2009 23:00 -1,9 C 93 % 1017,9 hPa 0,0 l/m N 2,8 km/h (1 Bft)
08.03.2009 00:00 -2,4 C 94 % 1017,4 hPa 0,0 l/m S 3,9 km/h (1 Bft)
08.03.2009 01:00 -2,6 C 95 % 1017,2 hPa 0,0 l/m SW 8,2 km/h (2 Bft)
08.03.2009 02:00 -1,6 C 92 % 1016,7 hPa 0,0 l/m SW 14,0 km/h (3 Bft)
08.03.2009 03:00 -1,6 C 90 % 1016,0 hPa 0,0 l/m W-SW 12,1 km/h (2 Bft)
08.03.2009 04:00 -2,2 C 89 % 1015,8 hPa 0,0 l/m W-SW 8,6 km/h (2 Bft)
08.03.2009 05:00 -2,3 C 90 % 1016,1 hPa 0,0 l/m SW 10,1 km/h (2 Bft)
08.03.2009 06:00 -2,5 C 92 % 1015,5 hPa 0,0 l/m SW 16,6 km/h (3 Bft)
08.03.2009 07:00 -1,9 C 91 % 1015,1 hPa 0,0 l/m S-SW 17,8 km/h (3 Bft)
08.03.2009 08:00 -0,4 C 87 % 1015,2 hPa 0,0 l/m SW 18,6 km/h (3 Bft)
08.03.2009 09:00 0,3 C 85 % 1015,2 hPa 0,0 l/m SW 14,0 km/h (3 Bft)
08.03.2009 10:00 2,3 C 74 % 1014,9 hPa 0,0 l/m SW 23,3 km/h (4 Bft)
08.03.2009 11:00 3,1 C 70 % 1014,4 hPa 0,0 l/m W-SW 24,0 km/h (4 Bft)
08.03.2009 12:00 3,4 C 71 % 1013,8 hPa 0,0 l/m SW 25,2 km/h (4 Bft)
08.03.2009 13:00 4,1 C 70 % 1012,5 hPa 0,0 l/m SW 26,4 km/h (4 Bft)
08.03.2009 14:00 4,7 C 71 % 1011,7 hPa 0,0 l/m W-SW 23,2 km/h (4 Bft)
08.03.2009 15:00 5,2 C 71 % 1011,0 hPa 0,0 l/m SW 22,7 km/h (4 Bft)
08.03.2009 16:00 5,1 C 74 % 1010,4 hPa 0,0 l/m W 25,3 km/h (4 Bft)
08.03.2009 17:00 4,5 C 77 % 1010,2 hPa 0,0 l/m W-SW 18,9 km/h (3 Bft)
08.03.2009 18:00 4,2 C 80 % 1010,2 hPa 0,0 l/m SW 15,4 km/h (3 Bft)
08.03.2009 19:00 4,1 C 83 % 1010,1 hPa 0,0 l/m SW 12,8 km/h (3 Bft)
08.03.2009 20:00 4,0 C 85 % 1009,4 hPa 0,0 l/m SW 13,6 km/h (3 Bft)
08.03.2009 21:00 3,9 C 89 % 1008,7 hPa 1,0 l/m SW 17,6 km/h (3 Bft)
08.03.2009 22:00 3,7 C 93 % 1008,3 hPa 0,0 l/m W-SW 20,2 km/h (4 Bft)
08.03.2009 23:00 3,9 C 93 % 1007,7 hPa 0,0 l/m SW 20,6 km/h (4 Bft)
Min-Datum _ 08.03.09 08.03.09 05.03.09 - - 02.03.09
_ Min-Zeit 01:20 11:15 14:35 - - 00:00
Minimum _ -2,8 C 69 % 982,7 hPa - - 0,0 km/h (0 Bft)
Max-Datum _ 02.03.09 03.03.09 07.03.09 05.03.09 - 08.03.09
_ Max-Zeit 14:50 08:55 23:15 18:05 - 12:20
Maximum _ 7,1 C 99 % 1018,0 hPa 1,2 l/m - 30,6 km/h
W-SW (5 Bft)
Durchschnitt _ 2,4 C 92 % 1004,1 hPa #30,2 l/m W-SW 9,0 km/h (2 Bft)